Kansas Department of Transportation
RWIS(Road and Runway Information System) Map and Weather Data





Station
Surface
Air
Wind
Site IDSensor TypeLocationTemperature (°F)Temperature (°F)Humidity (%)Speed (mi/h)Gusts (mi/h)DirectionTime
123014AtmosphericBull Creek 329824ESEDec 5 2016 2:05AM
123014DeckBull Creek30     Dec 5 2016 2:05AM
123014DepartureBull Creek32     Dec 5 2016 2:05AM
123015AtmosphericLeavenworth 349512ESEDec 5 2016 2:05AM
123015DeckLeavenworth32     Dec 5 2016 2:05AM
123015DepartureLeavenworth30     Dec 5 2016 2:05AM
123020AtmosphericMayetta 348989SDec 5 2016 2:05AM
123020RoadwayMayetta30     Dec 5 2016 2:05AM
123020DeckMayetta28     Dec 5 2016 2:05AM
505000AtmosphericKTA 1 349224SSEDec 5 2016 1:50AM
505000ApproachKTA 134     Dec 5 2016 1:50AM
505000DeckKTA 136     Dec 5 2016 1:50AM
505001AtmosphericKTA 2 379746SSWDec 5 2016 1:50AM
505001ApproachKTA 236     Dec 5 2016 1:50AM
505001DeckKTA 237     Dec 5 2016 1:50AM
505002AtmosphericKTA 3 329924SDec 5 2016 1:50AM
505002ApproachKTA 332     Dec 5 2016 1:50AM
505002DeckKTA 334     Dec 5 2016 1:50AM
505003AtmosphericKTA 4 379067SDec 5 2016 1:50AM
505003ApproachKTA 434     Dec 5 2016 1:50AM
505003DeckKTA 436     Dec 5 2016 1:50AM
505004AtmosphericKTA 5 369924SWDec 5 2016 1:50AM
505004RoadwayKTA 534     Dec 5 2016 1:50AM
505004RoadwayKTA 534     Dec 5 2016 1:50AM
505005AtmosphericKTA 6 289701EDec 5 2016 1:50AM
505005Approach KTA 632     Dec 5 2016 1:50AM
505005DeckKTA 628     Dec 5 2016 1:50AM
505006AtmosphericKTA 7 369346SSWDec 5 2016 1:50AM
505006ApproachKTA 732     Dec 5 2016 1:50AM
505006DeckKTA 730     Dec 5 2016 1:50AM
505007AtmosphericKTA 8 349946SSWDec 5 2016 1:50AM
505007ApproachKTA 832     Dec 5 2016 1:50AM
505007DeckKTA 830     Dec 5 2016 1:50AM
505008AtmosphericKTA 9 309701NDec 5 2016 1:50AM
505008ApproachKTA 932     Dec 5 2016 1:50AM
505008DeckKTA 930     Dec 5 2016 1:50AM
505009AtmosphericKTA 10 458001SSWDec 5 2016 1:50AM
505009ApproachKTA 1030     Dec 5 2016 1:50AM
505009DeckKTA 1028     Dec 5 2016 1:50AM
505010AtmosphericWebb 374447SEDec 5 2016 2:05AM
505010DeckWebb36     Dec 5 2016 2:05AM
505010DepartureWebbUnavailable     Dec 5 2016 2:05AM
505014AtmosphericI-135 379247SDec 5 2016 2:05AM
505014ApproachI-13536     Dec 5 2016 2:05AM
505014DeckI-135Unavailable     Dec 5 2016 2:05AM
540000AtmosphericBlue Rapids 368813SSEDec 5 2016 2:05AM
540000DeckBlue Rapids32     Dec 5 2016 2:05AM
540000DepartureBlue Rapids32     Dec 5 2016 2:05AM
540001AtmosphericSabetha 329957NEDec 5 2016 2:05AM
540001ApproachSabetha32     Dec 5 2016 2:05AM
540001DeckSabetha28     Dec 5 2016 2:05AM
540002AtmosphericWestgate 369257SDec 5 2016 2:05AM
540002DeckWestgate28     Dec 5 2016 2:05AM
540002DepartureWestgate34     Dec 5 2016 2:05AM
540003AtmosphericEmporia 329911EDec 5 2016 2:05AM
540003ApproachEmporiaUnavailable     Dec 5 2016 2:05AM
540003DeckEmporia32     Dec 5 2016 2:05AM
540005AtmosphericLawrence 329512NWDec 5 2016 2:05AM
540005ApproachLawrence30     Dec 5 2016 2:05AM
540005DeckLawrenceUnavailable     Dec 5 2016 2:05AM
540006AtmosphericTroy      Dec 4 2016 4:25PM
540006DeckTroy      Dec 4 2016 4:25PM
540006DepartureTroy      Dec 4 2016 4:25PM
540007AtmosphericManhattan 348612NEDec 5 2016 2:05AM
540007DepartureManhattan28     Dec 5 2016 2:05AM
540007DeckManhattan34     Dec 5 2016 2:05AM
541000AtmosphericElkhart 3265813SWDec 5 2016 2:05AM
541000ApproachElkhartUnavailable     Dec 5 2016 2:05AM
541000DeckElkhartUnavailable     Dec 5 2016 2:05AM
541001AtmosphericSyracuse 305914SSWDec 5 2016 2:05AM
541001Out of Service for WinterSyracuse32     Dec 5 2016 2:05AM
541001DeckSyracuse28     Dec 5 2016 2:05AM
541002AtmosphericLiberal 307412SSEDec 5 2016 2:05AM
541002ApproachLiberal32     Dec 5 2016 2:05AM
541002DeckLiberal32     Dec 5 2016 2:05AM
541003AtmosphericFord 326647SWDec 5 2016 2:05AM
541003DeckFord32     Dec 5 2016 2:05AM
541003DepartureFord34     Dec 5 2016 2:05AM
541004AtmosphericScott 3013911SEDec 5 2016 2:05AM
541004DepartureScott30     Dec 5 2016 2:05AM
541005AtmosphericNess 3945914SWDec 5 2016 2:05AM
541005DeckNess34     Dec 5 2016 2:05AM
541005DepartureNess34     Dec 5 2016 2:05AM
541007AtmosphericGarden City 37591117SDec 5 2016 2:05AM
541007ApproachGarden City28     Dec 5 2016 2:05AM
541007DeckGarden City32     Dec 5 2016 2:05AM
543000AtmosphericJunction City 397835NEDec 5 2016 2:05AM
543000ApproachJunction City36     Dec 5 2016 2:05AM
543000DeckJunction City32     Dec 5 2016 2:05AM
543001AtmosphericEllsworth 37451215NNWDec 5 2016 2:05AM
543001RoadwayEllsworth36     Dec 5 2016 2:05AM
543002AtmosphericMcPherson 329077SDec 5 2016 2:05AM
543002ApproachMcPherson34     Dec 5 2016 2:05AM
543002DeckMcPhersonUnavailable     Dec 5 2016 2:05AM
543003AtmosphericSalina 365846NNEDec 5 2016 2:05AM
543003DepartureSalina36     Dec 5 2016 2:05AM
543003RoadwaySalinaUnavailable     Dec 5 2016 2:05AM
543004AtmosphericConcordia 367668SDec 5 2016 2:05AM
543004ApproachConcordiaUnavailable     Dec 5 2016 2:05AM
543004DeckConcordia32     Dec 5 2016 2:05AM
543005AtmosphericPeabody 349516EDec 5 2016 2:05AM
543005ApproachPeabody34     Dec 5 2016 2:05AM
543005DeckPeabodyUnavailable     Dec 5 2016 2:05AM
560000AtmosphericEdson 305058SSWDec 5 2016 2:05AM
560000RoadwayEdson30     Dec 5 2016 2:05AM
560000RoadwayEdson30     Dec 5 2016 2:05AM
560001AtmosphericOakley 36551014SDec 5 2016 2:05AM
560001ApproachOakley32     Dec 5 2016 2:05AM
560001DeckOakley32     Dec 5 2016 2:05AM
560002AtmosphericAtwood 345347SSWDec 5 2016 2:05AM
560002ApproachAtwood32     Dec 5 2016 2:05AM
560002DeckAtwood32     Dec 5 2016 2:05AM
560003AtmosphericJennings 365047WSWDec 5 2016 2:05AM
560003ApproachJennings34     Dec 5 2016 2:05AM
560003DeckJennings32     Dec 5 2016 2:05AM
560004AtmosphericWakeeney 4643711SDec 5 2016 2:05AM
560004ApproachWakeeney34     Dec 5 2016 2:05AM
560004DeckWakeeney34     Dec 5 2016 2:05AM
560005AtmosphericWalker 345657SSWDec 5 2016 2:05AM
560005ApproachWalker32     Dec 5 2016 2:05AM
560005DeckWalker50     Dec 5 2016 2:05AM
560006AtmosphericBow Creek(Stockton) 3650811SSWDec 5 2016 2:05AM
560006ApproachBow Creek(Stockton)32     Dec 5 2016 2:05AM
560006DeckBow Creek(Stockton)30     Dec 5 2016 2:05AM
560007AtmosphericLebanon 308145SDec 5 2016 2:05AM
560007ApproachLebanon30     Dec 5 2016 2:05AM
560007DeckLebanon30     Dec 5 2016 2:05AM
560008AtmosphericWallace 325016WDec 5 2016 2:05AM
560008ApproachWallace32     Dec 5 2016 2:05AM
560008DeckWallace30     Dec 5 2016 2:05AM
572000AtmosphericGreat Bend 3672710SSWDec 5 2016 2:05AM
572000ApproachGreat Bend34     Dec 5 2016 2:05AM
572000DeckGreat Bend32     Dec 5 2016 2:05AM
572001AtmosphericPratt 347102SWDec 5 2016 2:05AM
572001ApproachPratt32     Dec 5 2016 2:05AM
572001DeckPratt32     Dec 5 2016 2:05AM
572002AtmosphericAnthony 348512WSWDec 5 2016 2:05AM
572002ApproachAnthony36     Dec 5 2016 2:05AM
572002DeckAnthony34     Dec 5 2016 2:05AM
573000AtmosphericEureka 309512SSEDec 5 2016 2:05AM
573000DeckEureka32     Dec 5 2016 2:05AM
573000DepartureEureka32     Dec 5 2016 2:05AM
573001AtmosphericGarnett 349745SSWDec 5 2016 2:05AM
573001ApproachGarnett30     Dec 5 2016 2:05AM
573001DeckGarnett28     Dec 5 2016 2:05AM
573002AtmosphericCaney 289003ESEDec 5 2016 2:05AM
573002RoadwayCaney36     Dec 5 2016 2:05AM
573003AtmosphericChetopa 309922ESEDec 5 2016 2:05AM
573003DeckChetopa34     Dec 5 2016 2:05AM
573003DepartureChetopa36     Dec 5 2016 2:05AM
573004AtmosphericChanute 349924SEDec 5 2016 2:05AM
573004ApproachChanute36     Dec 5 2016 2:05AM
573004DeckChanute32     Dec 5 2016 2:05AM